TimeCST,TemperatureF,Dew PointF,Humidity,Sea Level PressureIn,VisibilityMPH,Wind Direction,Wind SpeedMPH,Gust SpeedMPH,PrecipitationIn,Events,Conditions,WindDirDegrees,DateUTC
12:15 AM,39.9,32.0,73,30.32,10.0,North,10.4,-,N/A,,Clear,360,2013-01-18 06:15:00
12:35 AM,39.6,31.3,72,30.33,10.0,North,6.9,-,N/A,,Clear,10,2013-01-18 06:35:00
12:55 AM,39.6,31.1,72,30.33,10.0,North,9.2,-,N/A,,Clear,360,2013-01-18 06:55:00
1:15 AM,39.6,31.1,72,30.34,10.0,North,8.1,-,N/A,,Clear,350,2013-01-18 07:15:00
1:35 AM,39.6,31.1,72,30.34,10.0,North,8.1,-,N/A,,Clear,350,2013-01-18 07:35:00
1:55 AM,39.6,31.6,73,30.35,10.0,North,10.4,-,N/A,,Clear,350,2013-01-18 07:55:00
2:15 AM,39.6,32.0,74,30.35,10.0,North,8.1,-,N/A,,Clear,350,2013-01-18 08:15:00
2:35 AM,39.4,31.6,74,30.36,10.0,North,8.1,-,N/A,,Clear,360,2013-01-18 08:35:00
2:55 AM,39.6,30.9,71,30.35,10.0,North,5.8,-,N/A,,Clear,10,2013-01-18 08:55:00
3:15 AM,39.6,30.2,69,30.35,10.0,NNE,3.5,-,N/A,,Clear,20,2013-01-18 09:15:00
3:35 AM,39.6,29.7,68,30.36,10.0,North,3.5,-,N/A,,Clear,10,2013-01-18 09:35:00
3:55 AM,39.6,29.1,66,30.37,10.0,North,5.8,-,N/A,,Clear,360,2013-01-18 09:55:00
4:15 AM,38.8,28.6,67,30.38,10.0,North,4.6,-,N/A,,Clear,360,2013-01-18 10:15:00
4:55 AM,37.0,27.3,68,30.39,10.0,Calm,Calm,-,N/A,,Clear,0,2013-01-18 10:55:00
5:15 AM,37.0,27.9,69,30.39,10.0,North,5.8,-,N/A,,Clear,360,2013-01-18 11:15:00
5:35 AM,37.0,27.1,67,30.40,10.0,North,6.9,-,N/A,,Clear,10,2013-01-18 11:35:00
5:55 AM,37.0,27.1,67,30.42,10.0,North,4.6,-,N/A,,Clear,10,2013-01-18 11:55:00
6:15 AM,37.0,27.1,67,30.43,10.0,North,5.8,-,N/A,,Clear,360,2013-01-18 12:15:00
6:35 AM,37.0,27.5,68,30.44,10.0,North,4.6,-,N/A,,Clear,360,2013-01-18 12:35:00
6:55 AM,37.0,28.2,70,30.45,10.0,North,5.8,-,N/A,,Clear,350,2013-01-18 12:55:00
7:15 AM,37.0,28.4,71,30.45,10.0,North,4.6,-,N/A,,Clear,360,2013-01-18 13:15:00
7:35 AM,37.6,28.4,69,30.47,10.0,Calm,Calm,-,N/A,,Clear,0,2013-01-18 13:35:00
7:55 AM,39.6,30.2,69,30.47,10.0,North,5.8,-,N/A,,Clear,360,2013-01-18 13:55:00
8:35 AM,41.0,30.0,65,30.50,10.0,North,8.1,-,N/A,,Clear,350,2013-01-18 14:35:00
8:55 AM,41.2,29.7,64,30.51,10.0,North,6.9,-,N/A,,Clear,10,2013-01-18 14:55:00
9:15 AM,42.6,30.4,62,30.52,10.0,North,6.9,-,N/A,,Clear,360,2013-01-18 15:15:00
9:35 AM,43.7,29.1,57,30.53,10.0,North,8.1,-,N/A,,Clear,10,2013-01-18 15:35:00
10:15 AM,49.1,32.7,53,30.52,10.0,North,6.9,-,N/A,,Clear,350,2013-01-18 16:15:00
10:35 AM,49.6,32.4,51,30.52,10.0,NNW,4.6,-,N/A,,Clear,340,2013-01-18 16:35:00
10:55 AM,49.6,30.6,48,30.52,10.0,North,3.5,-,N/A,,Clear,360,2013-01-18 16:55:00
11:15 AM,50.9,30.6,46,30.51,10.0,NNW,4.6,-,N/A,,Clear,330,2013-01-18 17:15:00
11:35 AM,52.2,30.2,43,30.50,10.0,ENE,3.5,-,N/A,,Clear,60,2013-01-18 17:35:00
11:55 AM,54.7,29.8,39,30.49,10.0,Calm,Calm,-,N/A,,Clear,0,2013-01-18 17:55:00
12:15 PM,54.7,28.8,37,30.47,10.0,NNW,5.8,-,N/A,,Clear,340,2013-01-18 18:15:00
12:35 PM,54.7,27.3,35,30.47,10.0,North,3.5,-,N/A,,Clear,350,2013-01-18 18:35:00
12:55 PM,55.4,26.6,33,30.46,10.0,Calm,Calm,-,N/A,,Clear,0,2013-01-18 18:55:00
1:15 PM,57.2,26.2,31,30.45,10.0,Calm,Calm,-,N/A,,Clear,0,2013-01-18 19:15:00
1:35 PM,57.2,25.7,30,30.45,10.0,Calm,Calm,-,N/A,,Clear,0,2013-01-18 19:35:00
1:55 PM,57.2,24.1,28,30.44,10.0,NNW,3.5,-,N/A,,Clear,330,2013-01-18 19:55:00
2:15 PM,57.2,24.4,28,30.44,10.0,Calm,Calm,-,N/A,,Clear,0,2013-01-18 20:15:00
2:35 PM,57.2,22.6,26,30.43,10.0,Calm,Calm,-,N/A,,Clear,0,2013-01-18 20:35:00
2:55 PM,59.9,22.6,24,30.43,10.0,ENE,3.5,-,N/A,,Clear,70,2013-01-18 20:55:00
3:15 PM,57.4,20.3,24,30.43,10.0,ENE,3.5,-,N/A,,Clear,60,2013-01-18 21:15:00
3:35 PM,57.6,14.4,18,30.43,10.0,Calm,Calm,-,N/A,,Clear,0,2013-01-18 21:35:00
3:55 PM,59.2,19.2,21,30.43,10.0,Calm,Calm,-,N/A,,Clear,0,2013-01-18 21:55:00
4:15 PM,57.4,22.8,26,30.43,10.0,East,5.8,-,N/A,,Clear,100,2013-01-18 22:15:00
4:35 PM,57.2,22.5,26,30.43,10.0,Calm,Calm,-,N/A,,Clear,0,2013-01-18 22:35:00
4:55 PM,57.0,27.5,32,30.43,10.0,Calm,Calm,-,N/A,,Clear,0,2013-01-18 22:55:00
5:15 PM,54.0,32.0,43,30.43,10.0,Calm,Calm,-,N/A,,Clear,0,2013-01-18 23:15:00
5:35 PM,49.6,37.0,62,30.44,10.0,Calm,Calm,-,N/A,,Clear,0,2013-01-18 23:35:00
5:55 PM,49.6,36.9,61,30.44,10.0,Calm,Calm,-,N/A,,Clear,0,2013-01-18 23:55:00
6:15 PM,44.6,33.4,65,30.44,10.0,Calm,Calm,-,N/A,,Clear,0,2013-01-19 00:15:00
6:35 PM,44.2,33.6,66,30.44,10.0,Calm,Calm,-,N/A,,Clear,0,2013-01-19 00:35:00
6:55 PM,41.2,34.2,76,30.44,10.0,Calm,Calm,-,N/A,,Clear,0,2013-01-19 00:55:00
7:15 PM,39.7,34.2,80,30.44,10.0,Calm,Calm,-,N/A,,Clear,0,2013-01-19 01:15:00
7:35 PM,39.6,34.0,80,30.44,10.0,Calm,Calm,-,N/A,,Clear,0,2013-01-19 01:35:00
7:55 PM,39.6,34.7,83,30.44,10.0,Calm,Calm,-,N/A,,Clear,0,2013-01-19 01:55:00
8:15 PM,39.6,35.1,84,30.44,10.0,Calm,Calm,-,N/A,,Clear,0,2013-01-19 02:15:00
8:35 PM,37.0,32.9,85,30.44,10.0,Calm,Calm,-,N/A,,Clear,0,2013-01-19 02:35:00
8:55 PM,37.0,33.8,88,30.44,10.0,Calm,Calm,-,N/A,,Clear,0,2013-01-19 02:55:00
9:15 PM,37.0,33.3,86,30.44,10.0,Calm,Calm,-,N/A,,Clear,0,2013-01-19 03:15:00
9:35 PM,37.0,33.3,86,30.44,10.0,Calm,Calm,-,N/A,,Clear,0,2013-01-19 03:35:00
9:55 PM,37.0,33.4,87,30.44,10.0,Calm,Calm,-,N/A,,Clear,0,2013-01-19 03:55:00
10:15 PM,34.9,32.0,89,30.44,10.0,Calm,Calm,-,N/A,,Clear,0,2013-01-19 04:15:00
10:35 PM,34.7,31.6,89,30.43,10.0,Calm,Calm,-,N/A,,Clear,0,2013-01-19 04:35:00
10:55 PM,34.7,32.0,90,30.42,10.0,Calm,Calm,-,N/A,,Clear,0,2013-01-19 04:55:00
11:15 PM,36.3,33.3,89,30.42,10.0,Calm,Calm,-,N/A,,Clear,0,2013-01-19 05:15:00
11:35 PM,37.0,34.2,89,30.42,10.0,Calm,Calm,-,N/A,,Clear,0,2013-01-19 05:35:00
11:55 PM,34.7,31.8,89,30.41,10.0,Calm,Calm,-,N/A,,Clear,0,2013-01-19 05:55:00